Location: Beneden-Haastrecht
(52.0012°N, 4.7557°E)
Time: 03:40:38
(UTC+00:00)

SL-4 R/B - Pass Details

Date: 24 October 2020
Orbit: 427 x 665 km, 51.6° (Epoch: 24 November)

Event Time Altitude Azimuth Distance (km) Brightness Sun altitude
Rises 18:00:35 0° 262° (W) 2,432 7.2 -15.0°
Reaches altitude 10° 18:02:38 10° 261° (W) 1,585 5.7 -15.3°
Maximum altitude 18:06:12 83° 175° (S) 480 1.6 -15.8°
Enters shadow 18:07:39 35° 89° (E) 789 2.3 -16.0°
